• Join FlightAware (Why Join?)
  • Login
  • US Flag 
11:06AM EDT


 

Airport Tracker/Info


-or-


 

Live Flight TrackerFlight Track Log ✈ N53NW ✈ 03-May-2013 ✈ KTZR - KCLE

Flight Track Log - Related Links

Times and Time Zones

All times are in EDT time to prevent confusion due to time zone crossing. See the N53NW flight status page for this flight to view local times or setup timezone preferences in your user account.

Time Position Orientation Groundspeed Altitude Reporting Facility
EDT Latitude Longitude Course Direction KTS MPH feet Rate Location/Type
08:08AM 39.8922 -83.1450 176° South 165 190 1,200  Level Indianapolis Center
08:09AM 39.8319 -83.1394 176° South 230 265 4,100 3,000 Climbing Indianapolis Center
08:10AM 39.8389 -83.0578 84° East 240 276 7,600 3,060 Climbing Indianapolis Center
08:11AM 39.8847 -82.9769 54° Northeast 278 320 10,400 2,520 Climbing Indianapolis Center
08:12AM 39.9406 -82.8933 49° Northeast 301 346 12,800 1,260 Climbing Indianapolis Center
08:13AM 40.0008 -82.8056 48° Northeast 321 369 13,000 60 Climbing Indianapolis Center
08:14AM 40.0597 -82.7197 48° Northeast 316 364 13,000  Level Indianapolis Center
08:15AM 40.1178 -82.6336 49° Northeast 314 361 13,000  Level Indianapolis Center
08:16AM 40.1783 -82.5450 48° Northeast 324 373 13,000  Level Indianapolis Center
08:17AM 40.2403 -82.4533 48° Northeast 332 382 13,000  Level Indianapolis Center
08:18AM 40.2986 -82.3664 49° Northeast 325 374 13,000  Level Indianapolis Center
08:19AM 40.3686 -82.2597 49° Northeast 327 376 13,000  Level Indianapolis Center
08:20AM 40.4300 -82.1708 48° Northeast 326 375 13,000  Level Indianapolis Center
08:21AM 40.4717 -82.1142 46° Northeast 325 374 13,100  Climbing Cleveland Center
08:22AM 40.5456 -82.0422 36° Northeast 325 374 13,100  Level Cleveland Center
08:23AM 40.6175 -81.9672 38° Northeast 330 380 13,100  Level Cleveland Center
08:24AM 40.6575 -81.9325 33° Northeast 328 377 13,100  Level Cleveland Center
08:24AM 40.6975 -81.8894 39° Northeast 325 374 13,100  Level Cleveland Center
08:25AM 40.7314 -81.8572 36° Northeast 329 379 13,100 -240 Level Cleveland Center
08:25AM 40.7692 -81.8169 39° Northeast 325 374 12,900 -1,020 Descending Cleveland Center
08:26AM 40.8031 -81.7844 36° Northeast 331 381 12,100 -1,500 Descending Cleveland Center
08:26AM 40.8431 -81.7442 37° Northeast 319 367 11,400 -1,440 Descending Cleveland Center
08:27AM 40.8744 -81.7144 36° Northeast 315 362 10,700 -1,320 Descending Cleveland Center
08:27AM 40.9103 -81.6767 39° Northeast 319 367 10,100 -600 Descending Cleveland Center
08:28AM 40.9561 -81.6800 357° North 308 354 10,100 -120 Level Cleveland Center
08:28AM 40.9914 -81.6944 343° North 279 321 10,000  Descending Cleveland Center
08:29AM 41.0369 -81.7256 333° Northwest 323 372 10,100  Climbing Cleveland Center
08:29AM 41.0764 -81.7400 345° North 298 343 10,000  Descending Cleveland Center
08:30AM 41.1222 -81.7408 359° North 319 367 10,100  Climbing Cleveland Center
08:30AM 41.1619 -81.7386 North 312 359 10,000 -240 Descending Cleveland Center
08:31AM 41.2119 -81.7397 359° North 314 361 9,900 -840 Descending Cleveland Center
08:31AM 41.2475 -81.7375 North 304 350 9,200 -1,620 Descending Cleveland Center
08:32AM 41.2911 -81.7383 359° North 281 323 8,300 -1,500 Descending Cleveland Center
08:32AM 41.3183 -81.7414 355° North 291 335 7,700 -1,320 Descending Cleveland Center
08:33AM 41.3581 -81.7283 14° North 272 313 7,100 -720 Descending Cleveland Center
08:33AM 41.3939 -81.7014 29° Northeast 270 311 7,000 -300 Descending Cleveland Center
08:34AM 41.4189 -81.6825 30° Northeast 231 266 6,800 -1,380 Descending Cleveland Center
08:35AM 41.4694 -81.6306 38° Northeast 238 274 5,000 -1,740 Descending Cleveland Center
08:36AM 41.5192 -81.6786 324° Northwest 220 253 3,400 -1,020 Descending Cleveland Center
08:37AM 41.4872 -81.7308 231° Southwest 143 165 3,000 -600 Descending Cleveland Center
08:38AM 41.4597 -81.7689 226° Southwest 129 148 2,300 -660 Descending Cleveland Center
08:39AM 41.4406 -81.7992 230° Southwest 109 125 1,700 -600 Descending Cleveland Center
08:40AM 41.4217 -81.8319 232° Southwest 114 131 1,100 -600 Descending Cleveland Center